COSMOS 2165

导读

COSMOS 2165(宇宙2165)于1991年11月12日由独立国家联合体(CIS)发射,属于苏联/俄罗斯"宇宙"系列卫星。该系列卫星自1962年起持续发射,涵盖军事侦察、科学实验、技术验证等多类用途,是全球规模最大的卫星家族之一,支撑了航天技术发展与空间领域探索,在苏俄航天体系中占据重要位置。

基本信息
目录编号:
21779
目录名称:
COSMOS 2165
国际标识:
1991-077A
轨道中心:
EARTH
卫星名称:
COSMOS 2165
卫星全名:
--
卫星状态:
在轨 (已飞行12725 天)
发射日期:
1991-11-12 UTC
国别 :
俄罗斯(独联体) (CIS)
星等 :
--
该卫星已列入 空间交会检测服务 Space Conjunction Data Service (SCDS) ,当前飞行风险评估等级: 无高风险
轨道信息
数据来源 国际轨道数据
星历时间: 2026-09-13T15:14:22+0800
1天前
查看轨道信息
半长轴: 7780.828km
偏心率: 0.0009518
轨道倾角: 82.611°
近地点辐角 209.355°
升交点赤经 175.933°
平近点角 266.637°
近地点: 1395.285km
远地点: 1410.097km
周期: 113.841分钟
每日圈数: 12.64923
详细信息
使用方式:
暂无
2D轨道图
3D轨道图
轨道高度分析图
轨道倾角分析图
轨道综合分析图
查看轨道综合分析图
交会数据列表
事件ID 空间交会对象 最接近时刻(TCA) 交会距离 交会风险概率(CRP) 交会风险指数(CRI) 操作
CDM_260914-065400-828502-177929
2026-09-14T
06:54:54+0000
2.949 km
极远距离
1.095753E-6 低风险 0.36
CDM_260909-190802-177903-231125
2026-09-09T
19:08:34+0000
2.887 km
极远距离
5.264535E-7 极低风险 0.29
与全量物体交会距离演化趋势 订阅飞行安全评估服务
与全量物体交会风险概率演化趋势 订阅飞行安全评估服务